Location: El Bakhil
(32.7726°N, 5.5387°W)
Time: 03:06:00
(UTC+00:00)

DIWATA 2B (PO-101) - Pass Details

Date: 02 August 2021
Orbit: 584 x 600 km, 97.9° (Epoch: 19 September)

Event Time Altitude Azimuth Distance (km) Brightness Sun altitude
Exits shadow 01:47:05 14° 357° (N) 1,693 ? -36.1°
Drops below altitude 10° 01:47:42 10° 356° (N) 1,943 ? -36.1°
Sets 01:49:54 0° 353° (N) 2,850 ? -35.9°
